This is the latest recevied weather packets stored in our database for station/object F1AGU-13. If no packets are shown the sender has not sent any weather packets the latest 10 day(s).
| Time | Temp. | Humidity | Pressure | Rain* | Wind** | Luminosity | Snow |
|---|---|---|---|---|---|---|---|
| 1777851917 | 9.44° C | 84% | 1016.6 hPa | 0.25 mm | - | - | - |
| 1777851317 | 8.89° C | 84% | 1016.8 hPa | 0.25 mm | - | - | - |
| 1777850716 | 8.89° C | 84% | 1016.8 hPa | 0.25 mm | - | - | - |
| 1777850117 | 8.89° C | 83% | 1016.8 hPa | 0 mm | - | - | - |
| 1777849516 | 8.89° C | 83% | 1016.9 hPa | 0 mm | - | - | - |
| 1777848916 | 8.89° C | 82% | 1016.8 hPa | 0 mm | - | - | - |
| 1777848316 | 8.33° C | 82% | 1016.7 hPa | 0 mm | - | - | - |
| 1777847716 | 8.33° C | 83% | 1016.7 hPa | 0 mm | - | - | - |
| 1777847117 | 8.33° C | 83% | 1016.6 hPa | 0 mm | - | - | - |
| 1777846516 | 7.78° C | 83% | 1016.6 hPa | 0 mm | - | - | - |
| 1777845916 | 7.78° C | 84% | 1016.3 hPa | 0 mm | - | - | - |
| 1777845317 | 7.78° C | 84% | 1016.3 hPa | 0 mm | - | - | - |
| 1777844717 | 7.78° C | 85% | 1016.3 hPa | 0 mm | - | - | - |
| 1777844117 | 7.78° C | 85% | 1016.6 hPa | 0 mm | - | - | - |
| 1777843517 | 7.78° C | 85% | 1016.6 hPa | 0 mm | - | - | - |
| 1777842917 | 7.78° C | 84% | 1016.6 hPa | 0 mm | - | - | - |
| 1777842317 | 8.33° C | 83% | 1016.8 hPa | 0 mm | - | - | - |
| 1777841717 | 8.33° C | 83% | 1017 hPa | 0 mm | - | - | - |
| 1777841117 | 8.33° C | 83% | 1017 hPa | 0 mm | - | - | - |
| 1777840517 | 8.33° C | 83% | 1016.8 hPa | 0 mm | - | - | - |
| 1777839917 | 8.89° C | 82% | 1016.8 hPa | 0 mm | - | - | - |
| 1777839317 | 8.89° C | 81% | 1016.7 hPa | 0 mm | - | - | - |
| 1777838720 | 8.89° C | 82% | 1016.4 hPa | 0 mm | - | - | - |
| 1777838117 | 9.44° C | 82% | 1016.3 hPa | 0 mm | - | - | - |
| 1777837517 | 9.44° C | 82% | 1016.2 hPa | 0 mm | - | - | - |
* Rain latest hour (hover to see other rain measurements)
** Current wind speed in m/s (hover to see current wind gust speed)